This is the latest recevied weather packets stored in our database for station/object OE-11213. If no packets are shown the sender has not sent any weather packets the latest 10 day(s).
| Time | Temp. | Humidity | Pressure | Rain* | Wind** | Luminosity | Snow |
|---|---|---|---|---|---|---|---|
| 1788087930 | 25.56° C | 52% | 1015.1 hPa | 0 mm | - | 761 W/m² | - |
| 1788087330 | 25.56° C | 52% | 1015.4 hPa | 0 mm | - | 761 W/m² | - |
| 1788086503 | 25° C | 50% | 1015.4 hPa | 0 mm | - | 754 W/m² | - |
| 1788086130 | 25° C | 52% | 1015.5 hPa | 0 mm | - | 747 W/m² | - |
| 1788085530 | 25° C | 54% | 1015.7 hPa | 0 mm | - | 740 W/m² | - |
| 1788084703 | 25° C | 56% | 1015.8 hPa | 0 mm | - | 732 W/m² | - |
| 1788084330 | 24.44° C | 58% | 1016.2 hPa | 0 mm | - | 718 W/m² | - |
| 1788083730 | 24.44° C | 55% | 1016.2 hPa | 0 mm | - | 711 W/m² | - |
| 1788082903 | 23.89° C | 59% | 1016.4 hPa | 0 mm | - | 696 W/m² | - |
| 1788082530 | 23.89° C | 59% | 1016.4 hPa | 0 mm | - | 682 W/m² | - |
| 1788081930 | 23.89° C | 62% | 1016.5 hPa | 0 mm | - | 660 W/m² | - |
| 1788081103 | 23.33° C | 62% | 1016.6 hPa | 0 mm | - | 653 W/m² | - |
| 1788080729 | 22.78° C | 64% | 1016.8 hPa | 0 mm | - | 631 W/m² | - |
| 1788080130 | 23.33° C | 64% | 1016.7 hPa | 0 mm | - | 616 W/m² | - |
| 1788079303 | 22.22° C | 64% | 1016.9 hPa | 0 mm | - | 580 W/m² | - |
| 1788078929 | 22.22° C | 64% | 1017 hPa | 0 mm | - | 573 W/m² | - |
| 1788078330 | 22.78° C | 65% | 1017 hPa | 0 mm | - | 551 W/m² | - |
| 1788077502 | 22.78° C | 63% | 1017.1 hPa | 0 mm | - | 529 W/m² | - |
| 1788077130 | 22.22° C | 67% | 1017.2 hPa | 0 mm | - | 500 W/m² | - |
| 1788076530 | 21.67° C | 68% | 1017.3 hPa | 0 mm | - | 479 W/m² | - |
| 1788075703 | 21.11° C | 72% | 1017.5 hPa | 0 mm | - | 450 W/m² | - |
| 1788075329 | 20.56° C | 74% | 1017.5 hPa | 0 mm | - | 428 W/m² | - |
| 1788074730 | 20.56° C | 74% | 1017.6 hPa | 0 mm | - | 399 W/m² | - |
| 1788073903 | 20° C | 76% | 1017.5 hPa | 0 mm | - | 370 W/m² | - |
| 1788073530 | 20° C | 77% | 1017.5 hPa | 0 mm | - | 341 W/m² | - |
* Rain latest hour (hover to see other rain measurements)
** Current wind speed in m/s (hover to see current wind gust speed)